[[{"header":{"parameterUnit":"m.s-1","parameterCategory":1,"la1":30.2991,"la2":30.254,"lo1":-89.0895,"lo2":-89.0444,"dy":0.0017,"dx":0.0017,"nx":28,"ny":28,"refTime":"2024-07-13T09:00:00:Z","depth":0,"parameterNumber":2,"parameterNumberName":"U-component_of_WINDS"},"data":[0,0,0,0,0,0,0,0,0,0,0,0,0,0,0,0,0,0,0,0,0,0,0,0,0,0,0,0,0,0,0,0,0,0,0,0,0,0,0,0,0,0,0,0,0,0,0,0,0,0,0,0,0,0,0,0,0,0,0.18,0.1801,0,0.1936,0.1937,0.1939,0.1989,0.1988,0.1988,0.1988,0.2128,0.2132,0.2136,0,0,0,0,0,0,0,0,0,0,0,0,0,0.1583,0.1587,0.18,0.1801,0.1803,0.1935,0.1937,0.1939,0.1989,0.1988,0.1988,0.1987,0.2126,0.2131,0.2136,0,0,0,0,0,0,0,0,0,0,0,0,0,0.1694,0.1588,0.1799,0.1844,0.1849,0.1935,0.1937,0.194,0.1989,0.1988,0.1988,0.1987,0.2125,0.2131,0.2137,0.2189,0,0,0.2156,0.2159,0,0,0,0,0,0,0,0,0.1688,0.1702,0.1836,0.1841,0.1847,0.1945,0.1913,0.2023,0.1989,0.1936,0.1988,0.1987,0.2067,0.2078,0.2105,0.2195,0.2201,0.2156,0.216,0.2163,0.2165,0,0,0,0,0,0,0,0.168,0.1696,0.1854,0.1837,0.1845,0.1857,0.1872,0.1934,0.2004,0.1941,0.1945,0.196,0.207,0.2099,0.2109,0.2203,0.2156,0.2162,0.2166,0.2168,0.2343,0.2343,0,0,0,0,0,0,0.1665,0.169,0.1849,0.1858,0.1764,0.1862,0.1878,0.1914,0.2003,0.2016,0.196,0.1962,0.2089,0.2102,0.2114,0.218,0.2163,0.2169,0.2172,0.2342,0.2343,0.2344,0,0,0,0,0,0,0.166,0.1679,0.1844,0.1775,0.1797,0.1866,0.1906,0.1917,0.1946,0.2018,0.2031,0.1977,0.2089,0.2105,0.217,0.2186,0.2171,0.2177,0.2341,0.2342,0.2343,0.2313,0,0,0,0,0,0,0.1654,0.1677,0.1697,0.1775,0.18,0.1897,0.1907,0.192,0.1956,0.196,0.2037,0.2049,0.209,0.216,0.2176,0.2194,0.2182,0.2339,0.2341,0.2343,0.2313,0.2313,0.2314,0,0,0,0,0,0.1646,0.1683,0.1698,0.1717,0.1827,0.1898,0.1912,0.1957,0.1957,0.1978,0.2025,0.2047,0.2182,0.2166,0.2184,0.2205,0.2339,0.2341,0.2343,0.2313,0.2313,0.2314,0,0,0,0,0,0,0.1605,0.1694,0.1711,0.1775,0.1828,0.1906,0.1934,0.1956,0.2011,0.2012,0.2066,0.2083,0.2143,0.2181,0.2162,0.226,0.2262,0.2267,0.2233,0.2234,0.2234,0.2224,0.2187,0,0,0,0,0,0.1604,0.1654,0.1729,0.1778,0.1804,0.1864,0.1896,0.1927,0.1984,0.2007,0.2058,0.2113,0.2168,0.2203,0.2258,0.2319,0.2337,0.2342,0.2342,0.2342,0.2346,0.2381,0.2385,0.235,0.235,0.235,0,0,0.1602,0.1656,0.1684,0.1771,0.1816,0.1866,0.1883,0.1935,0.1973,0.2015,0.2079,0.2118,0.2183,0.2246,0.2277,0.2279,0.236,0.2345,0.2344,0.2349,0.2384,0.2387,0.239,0.2352,0.2352,0.2351,0,0,0.1623,0.1669,0.1715,0.1759,0.1827,0.1867,0.1878,0.1952,0.198,0.2045,0.2077,0.2123,0.2216,0.2261,0.2296,0.2334,0.2356,0.2351,0.2352,0.2385,0.2388,0.2391,0.2404,0.2408,0.2355,0.2355,0.2354,0,0.1611,0.1688,0.1736,0.1787,0.1824,0.1864,0.1911,0.1952,0.2033,0.2058,0.206,0.2178,0.2225,0.2298,0.2308,0.2335,0.2349,0.2342,0.2384,0.2387,0.239,0.2403,0.2408,0.2353,0.2353,0.2354,0.2354,0,0.167,0.1723,0.1752,0.183,0.187,0.1919,0.1974,0.2009,0.2036,0.2075,0.2141,0.2198,0.2265,0.2285,0.2311,0.2362,0.2362,0.2373,0.2376,0.2391,0.2405,0.241,0.2352,0.2352,0.2352,0.2353,0,0,0.1669,0.1773,0.1783,0.1818,0.1896,0.1938,0.1988,0.2053,0.2082,0.2137,0.2181,0.2259,0.2269,0.2309,0.2341,0.2371,0.2397,0.2379,0.2381,0.238,0.2456,0.2446,0.2451,0.2412,0.2413,0.2414,0.245,0,0.17,0.1792,0.1836,0.1908,0.1957,0.1996,0.204,0.2093,0.2131,0.2178,0.2221,0.2275,0.2286,0.231,0.2341,0.2387,0.2413,0.2385,0.2453,0.2455,0.2435,0.2459,0.2449,0.248,0.2456,0.2457,0.2457,0,0.1748,0.1803,0.188,0.1951,0.1974,0.2012,0.2075,0.212,0.218,0.2206,0.225,0.2282,0.2336,0.2335,0.2411,0.2391,0.2422,0.2449,0.2451,0.2459,0.2456,0.2467,0.2492,0.2496,0.2466,0.2465,0.2465,0,0.1739,0.1832,0.189,0.192,0.2005,0.2031,0.2068,0.2127,0.2163,0.2218,0.2242,0.2303,0.2336,0.2383,0.243,0.2425,0.2501,0.2504,0.2524,0.2523,0.2538,0.2536,0.2568,0.2558,0.2558,0.2558,0.2558,0,0.1769,0.1814,0.1887,0.1923,0.1975,0.2026,0.2076,0.2115,0.2168,0.2212,0.225,0.229,0.235,0.2398,0.2435,0.2492,0.2507,0.2529,0.2539,0.2526,0.2523,0.2546,0.2545,0.2559,0.2559,0.2558,0.2558,0,0.1767,0.1818,0.1884,0.1959,0.1979,0.2014,0.2078,0.2115,0.2155,0.221,0.2226,0.2289,0.2348,0.2399,0.2477,0.2502,0.256,0.2572,0.2539,0.2544,0.2561,0.2559,0.2608,0.2618,0.2601,0.2602,0.2602,0,0.1782,0.1818,0.1897,0.1929,0.1965,0.2017,0.2054,0.2105,0.2142,0.2213,0.2241,0.2302,0.2354,0.2445,0.2498,0.2558,0.2571,0.2584,0.258,0.2566,0.2571,0.2568,0.2572,0.2584,0.2584,0.2584,0.2584,0,0.1804,0.1827,0.1879,0.194,0.1983,0.2033,0.2085,0.2109,0.217,0.2209,0.227,0.231,0.2389,0.2449,0.2514,0.2552,0.2578,0.2585,0.2592,0.2579,0.2559,0.257,0.2539,0.2583,0.2583,0.2583,0.2583,0.2583,0.1811,0.1845,0.1906,0.1962,0.2006,0.2053,0.2091,0.2136,0.2187,0.2255,0.2282,0.2343,0.2403,0.2493,0.2531,0.258,0.2584,0.2596,0.2598,0.26,0.2598,0.2551,0.2592,0.2592,0.2592,0.2592,0.2592,0,0.1834,0.1875,0.1927,0.1997,0.2042,0.2062,0.212,0.2156,0.2209,0.2263,0.2313,0.2382,0.244,0.2498,0.256,0.2587,0.2601,0.2602,0.26,0.2609,0.2591,0.2578,0.259,0.259,0.259,0.259,0.259,0.259,0.1851,0.1909,0.194,0.202,0.2061,0.2121,0.2152,0.2196,0.2239,0.2314,0.2363,0.24,0.2455,0.2521,0.2576,0.2591,0.2612,0.261,0.2628,0.261,0.261,0.2609,0.2598,0.2614,0.2614,0.2643,0.2643,0.2643]},{"header":{"parameterUnit":"m.s-1","parameterCategory":1,"la1":30.2991,"la2":30.254,"lo1":-89.0895,"lo2":-89.0444,"dy":0.0017,"dx":0.0017,"nx":28,"ny":28,"refTime":"2024-07-13T09:00:00:Z","depth":0,"parameterNumber":3,"parameterNumberName":"V-component_of_WINDS"},"data":[0,0,0,0,0,0,0,0,0,0,0,0,0,0,0,0,0,0,0,0,0,0,0,0,0,0,0,0,0,0,0,0,0,0,0,0,0,0,0,0,0,0,0,0,0,0,0,0,0,0,0,0,0,0,0,0,0,0,4.019,4.0189,0,4.0101,4.01,4.0099,4.0007,4.0005,4.0004,4.0003,3.9906,3.9905,3.9904,0,0,0,0,0,0,0,0,0,0,0,0,0,4.0277,4.0276,4.019,4.0189,4.0188,4.0101,4.01,4.0098,4.0007,4.0005,4.0004,4.0002,3.9907,3.9905,3.9904,0,0,0,0,0,0,0,0,0,0,0,0,0,4.0218,4.0275,4.019,4.0132,4.0126,4.0101,4.01,4.0098,4.0007,4.0005,4.0003,4.0002,3.9907,3.9905,3.9903,3.9928,0,0,3.9897,3.9896,0,0,0,0,0,0,0,0,4.0222,4.0215,4.0142,4.0136,4.0129,4.0063,4.0095,4.0041,4.0008,4.0052,4.0003,4.0001,3.996,3.9953,3.994,3.9923,3.9919,3.9897,3.9895,3.9895,3.9894,0,0,0,0,0,0,0,4.0226,4.0219,4.0155,4.0141,4.0133,4.0108,4.0098,4.0084,4.0017,4.0048,4.0041,4.0032,3.9956,3.9943,3.9937,3.9918,3.9897,3.9895,3.9894,3.9893,3.9915,3.9916,0,0,0,0,0,0,4.024,4.0223,4.0157,4.0152,4.0172,4.0108,4.0097,4.0086,4.0017,4.0005,4.0034,4.0028,3.9947,3.994,3.9934,3.9957,3.9895,3.9893,3.9891,3.9913,3.9915,3.9917,0,0,0,0,0,0,4.0242,4.0235,4.0161,4.0185,4.0174,4.0109,4.0097,4.0085,4.0072,4.0007,3.9994,4.0033,3.9945,3.9937,3.993,3.9952,3.9892,3.989,3.9911,3.9913,3.9916,4.0005,0,0,0,0,0,0,4.0245,4.0236,4.0246,4.0186,4.0173,4.0161,4.0099,4.0085,4.0069,4.0061,4.0002,3.9991,3.9943,3.9934,3.9928,3.9948,3.9888,3.9908,3.9912,3.9915,3.9999,4.001,4.0019,0,0,0,0,0,4.0248,4.0274,4.0247,4.024,4.0185,4.0162,4.0155,4.0101,4.0071,4.008,4.0038,3.9993,3.9951,3.9934,3.9926,3.9947,3.9907,3.9911,3.9915,3.9995,4.0008,4.0019,0,0,0,0,0,0,4.0336,4.0265,4.0234,4.0242,4.0209,4.0147,4.0156,4.0117,4.009,4.0083,4.0016,4.0004,4.0005,3.9975,3.9957,3.9966,3.9922,3.9925,3.9986,3.9997,4.0007,4.0014,3.9886,0,0,0,0,0,4.0357,4.0346,4.0284,4.0296,4.0281,4.0222,4.021,4.0172,4.0134,4.012,4.0077,4.0041,4.0019,4.0007,3.9984,3.9995,3.998,4.0005,4.0015,4.0023,4.0026,4.0028,4.0039,3.9931,3.993,3.993,0,0,4.0398,4.0358,4.0355,4.0313,4.0283,4.0272,4.0211,4.0202,4.0192,4.0117,4.0109,4.0077,4.0032,4.0034,4.0033,4.0009,4.0053,4.0028,4.0036,4.0034,4.0034,4.0044,4.0053,3.9933,3.9933,3.9932,0,0,4.0468,4.0438,4.0444,4.0416,4.0372,4.0332,4.0334,4.0278,4.0254,4.0244,4.0188,4.0175,4.014,4.011,4.009,4.0149,4.0106,4.0143,4.0195,4.0198,4.0206,4.0214,4.0234,4.0242,4.0147,4.0147,4.0147,0,4.0525,4.0508,4.0452,4.0447,4.0429,4.0363,4.0368,4.0342,4.0293,4.0281,4.0256,4.021,4.0175,4.0169,4.0184,4.017,4.0169,4.015,4.021,4.0217,4.0223,4.0241,4.0249,4.0152,4.0151,4.0151,4.015,0,4.058,4.0569,4.0579,4.0534,4.0518,4.0518,4.046,4.045,4.0413,4.0375,4.0366,4.0322,4.0288,4.0284,4.0247,4.0272,4.0259,4.0223,4.0177,4.0239,4.0255,4.0261,4.0159,4.0157,4.0155,4.0154,0,0,4.0703,4.0627,4.0632,4.0611,4.0557,4.0546,4.0543,4.0512,4.0504,4.0471,4.0465,4.0437,4.0404,4.0381,4.034,4.0343,4.0391,4.0306,4.0304,4.0323,4.0415,4.0442,4.0452,4.0363,4.0364,4.0365,4.0419,0,4.0763,4.0755,4.0704,4.0709,4.0697,4.0634,4.063,4.0596,4.0561,4.0544,4.0504,4.0485,4.0443,4.0429,4.0429,4.0386,4.0409,4.0381,4.0355,4.0355,4.0368,4.046,4.0489,4.0542,4.0425,4.0426,4.0426,0,4.0833,4.0806,4.0811,4.0757,4.075,4.0749,4.0715,4.0701,4.066,4.0634,4.061,4.0564,4.0555,4.0513,4.0498,4.048,4.0466,4.0444,4.0444,4.0439,4.0394,4.0457,4.0557,4.0565,4.0436,4.0435,4.0434,0,4.0921,4.0886,4.0885,4.0868,4.0806,4.0806,4.0779,4.0737,4.0721,4.0692,4.068,4.065,4.0633,4.0609,4.0555,4.053,4.0546,4.05,4.0523,4.0524,4.0529,4.0529,4.0628,4.0521,4.0521,4.0521,4.0521,0,4.0993,4.0999,4.0924,4.0922,4.0926,4.0867,4.0871,4.0838,4.0801,4.0791,4.0734,4.0725,4.0655,4.0638,4.0596,4.0589,4.0582,4.056,4.0548,4.0565,4.0567,4.0554,4.0549,4.0523,4.0522,4.0522,4.0522,0,4.1093,4.1043,4.1036,4.0978,4.0963,4.0969,4.0917,4.0913,4.0874,4.0862,4.0856,4.0795,4.0772,4.0716,4.0678,4.0649,4.0653,4.0633,4.0668,4.0661,4.0686,4.0685,4.078,4.0789,4.0677,4.0678,4.0679,0,4.1142,4.1145,4.1087,4.1077,4.1054,4.1038,4.1022,4.0964,4.0949,4.0903,4.0904,4.0876,4.0851,4.0817,4.0768,4.0738,4.0716,4.0751,4.0711,4.0727,4.0715,4.0716,4.0715,4.076,4.0761,4.0763,4.0764,0,4.1235,4.121,4.119,4.1162,4.1145,4.1119,4.109,4.1084,4.1018,4.1004,4.0981,4.0962,4.0923,4.0896,4.0859,4.0829,4.0785,4.0777,4.078,4.0797,4.0817,4.0806,4.0692,4.0775,4.0774,4.0773,4.0772,4.0772,4.1309,4.1309,4.1268,4.1248,4.122,4.1194,4.1187,4.1148,4.1129,4.1094,4.106,4.104,4.0997,4.0943,4.0916,4.0898,4.0876,4.0881,4.0882,4.0885,4.0892,4.0821,4.0891,4.0891,4.089,4.089,4.089,0,4.1399,4.137,4.1352,4.1314,4.1297,4.1259,4.1225,4.1213,4.1197,4.1162,4.1139,4.1112,4.1085,4.1034,4.1002,4.0998,4.0977,4.0991,4.0991,4.0984,4.0914,4.0914,4.1009,4.1009,4.1009,4.1009,4.1009,4.1009,4.1443,4.144,4.1411,4.1392,4.1362,4.1344,4.1327,4.1302,4.1275,4.1247,4.1226,4.1193,4.1151,4.1116,4.109,4.1075,4.1066,4.1087,4.1066,4.1001,4.099,4.0979,4.0978,4.1086,4.1086,4.1138,4.1138,4.1139]}]]